DW7099 Weather Reports


time (UTC)temp
C
wind
direction
speed
KPH
gust
KPH
rain 1hr
cm
rain 24hr
cm
rain mn
cm
humidity
%
barometer
mb
20260507191634 11 0 0.0 1.6 0.00 1.50 1.50 92 1009.9
20260507191134 11 114 0.0 1.6 0.00 1.50 1.50 94 1009.9
20260507190635 11 206 0.0 1.6 0.00 1.50 1.50 93 1010.0
20260507190135 11 87 0.0 1.6 0.00 1.50 1.50 93 1009.9
20260507185634 11 0 0.0 1.6 0.00 1.50 1.50 93 1009.9
20260507185134 11 0 0.0 1.6 0.00 1.50 1.50 93 1010.1
20260507184633 11 80 0.0 1.6 0.00 1.50 1.50 94 1010.1
20260507184134 11 0 0.0 1.6 0.00 1.50 1.50 93 1010.1
20260507183134 11 0 0.0 0.0 0.00 1.50 1.50 93 1010.0
20260507182634 11 0 0.0 0.0 0.00 1.50 1.50 93 1010.1
20260507182121 11 0 0.0 0.0 0.00 1.50 1.50 92 1009.9
20260507181621 11 0 0.0 1.6 0.00 1.50 1.50 93 1010.1
20260507181121 11 0 0.0 1.6 0.00 1.50 1.50 92 1010.0
20260507180840 11 115 0.0 1.6 0.00 1.50 1.50 92 1010.2
20260507180121 11 0 0.0 1.6 0.00 1.50 1.50 92 1010.1
20260507175621 11 0 0.0 1.6 0.00 1.50 1.50 92 1010.2
20260507175120 11 0 0.0 1.6 0.00 1.50 1.50 91 1010.2
20260507174621 11 190 0.0 1.6 0.00 1.50 1.50 90 1010.2
20260507174121 11 0 0.0 1.6 0.00 1.50 1.50 91 1010.2
20260507173607 11 226 0.0 1.6 0.00 1.50 1.50 92 1010.3
20260507173107 11 91 0.0 3.2 0.00 1.50 1.50 91 1010.5
20260507172606 11 0 0.0 3.2 0.00 1.50 1.50 92 1010.5
20260507172107 11 0 0.0 1.6 0.00 1.50 1.50 91 1010.6
20260507171607 11 0 0.0 1.6 0.00 1.50 1.50 90 1010.4
20260507171052 11 0 0.0 1.6 0.00 1.50 1.50 90 1010.6
20260507170552 11 114 0.0 1.6 0.00 1.50 1.50 91 1010.6
20260507170052 11 91 0.0 1.6 0.00 1.50 1.50 91 1010.6
20260507165552 11 161 0.0 1.6 0.00 1.50 1.50 90 1010.6
20260507165311 11 0 0.0 1.6 0.00 1.50 1.50 89 1010.7
20260507164552 11 0 0.0 1.6 0.00 1.50 1.50 90 1010.9
20260507164052 11 198 0.0 3.2 0.00 1.50 1.50 90 1011.0
20260507163552 11 0 0.0 3.2 0.00 1.50 1.50 88 1011.0
20260507163312 11 104 0.0 1.6 0.00 1.50 1.50 88 1011.0
20260507162552 11 0 0.0 1.6 0.00 1.50 1.50 91 1010.9
20260507162052 11 0 0.0 1.6 0.00 1.50 1.50 89 1011.2
20260507161552 11 0 0.0 1.6 0.00 1.50 1.50 92 1010.9
20260507161315 11 0 0.0 0.0 0.00 1.50 1.50 94 1010.8
20260507160817 11 0 0.0 1.6 0.00 1.50 1.50 94 1010.9
20260507160053 11 190 0.0 1.6 0.00 1.50 1.50 92 1010.9
20260507155553 11 0 0.0 1.6 0.00 1.50 1.50 94 1011.1
20260507155301 11 0 0.0 1.6 0.00 1.50 1.50 94 1011.2
20260507154536 11 106 0.0 1.6 0.00 1.50 1.50 92 1010.8
20260507154036 11 179 0.0 3.2 0.00 1.50 1.50 93 1010.8
20260507153537 12 0 1.6 3.2 0.00 1.50 1.50 92 1010.9
20260507153037 12 217 1.6 1.6 0.00 1.50 1.50 93 1011.0
20260507152537 12 197 1.6 1.6 0.00 1.50 1.50 94 1010.8
20260507152037 12 200 0.0 1.6 0.00 1.50 1.50 95 1010.7
20260507151536 12 0 0.0 1.6 0.00 1.50 1.50 96 1010.9
20260507151256 12 0 0.0 1.6 0.00 1.50 1.50 96 1011.0
20260507150536 12 214 0.0 1.6 0.00 1.50 1.50 96 1010.9
20260507150037 12 0 0.0 1.6 0.00 1.50 1.50 96 1010.9
20260507145757 12 199 0.0 1.6 0.00 1.50 1.50 96 1010.9
20260507145037 12 0 0.0 1.6 0.00 1.50 1.50 96 1010.9
20260507144524 12 206 0.0 1.6 0.00 1.52 1.50 95 1010.8
20260507144247 12 0 0.0 1.6 0.00 1.52 1.50 95 1010.7
20260507143509 12 202 0.0 1.6 0.00 1.52 1.50 95 1010.5
20260507143009 12 0 0.0 1.6 0.00 1.52 1.50 96 1010.5
20260507142509 12 202 0.0 1.6 0.00 1.52 1.50 96 1010.8
20260507142010 12 0 0.0 1.6 0.00 1.55 1.50 96 1010.9
20260507141509 12 0 0.0 1.6 0.00 1.55 1.50 96 1010.9
20260507141010 12 186 0.0 1.6 0.00 1.55 1.50 96 1010.8
20260507140509 12 0 0.0 1.6 0.00 1.55 1.50 97 1010.9
20260507140010 12 213 0.0 1.6 0.00 1.55 1.50 96 1010.9
20260507135455 13 217 0.0 1.6 0.00 1.55 1.50 97 1010.9
20260507134955 13 0 0.0 1.6 0.00 1.55 1.50 97 1011.0
20260507134455 13 0 1.6 1.6 0.00 1.55 1.50 98 1011.0
20260507133938 13 205 1.6 1.6 0.00 1.55 1.50 98 1010.9
20260507133439 13 182 1.6 3.2 0.00 1.55 1.50 98 1010.9
20260507132940 13 229 1.6 3.2 0.00 1.55 1.50 99 1011.0
20260507132439 13 211 1.6 1.6 0.00 1.55 1.50 99 1010.5
20260507131939 13 196 0.0 1.6 0.00 1.55 1.50 99 1010.5
20260507131439 13 198 0.0 1.6 0.00 1.55 1.50 99 1010.4
20260507131201 13 208 0.0 1.6 0.00 1.55 1.50 99 1010.4
20260507130438 12 0 0.0 1.6 0.00 1.55 1.50 99 1010.4
20260507125939 12 0 0.0 1.6 0.00 1.55 1.50 99 1010.4
20260507125440 12 229 0.0 1.6 0.00 1.55 1.50 99 1010.4
20260507124938 12 184 0.0 1.6 0.00 1.55 1.50 99 1010.6
20260507124438 12 0 0.0 1.6 0.00 1.55 1.50 99 1010.7
20260507123939 12 208 0.0 1.6 0.00 1.55 1.50 99 1010.7
20260507123438 12 0 0.0 1.6 0.00 1.55 1.50 99 1010.7
20260507122939 12 0 0.0 1.6 0.00 1.55 1.50 99 1010.6
20260507122426 12 206 0.0 1.6 0.00 1.55 1.50 99 1010.6
20260507121911 12 66 0.0 1.6 0.00 1.55 1.50 99 1010.4
20260507121410 12 217 0.0 1.6 0.00 1.55 1.50 99 1010.3
20260507120911 12 0 0.0 1.6 0.00 1.55 1.50 99 1010.4
20260507120411 12 0 0.0 1.6 0.00 1.55 1.50 99 1010.3
20260507115856 12 0 0.0 1.6 0.00 1.55 1.50 99 1010.5
20260507115619 12 203 0.0 1.6 0.03 1.55 1.50 99 1010.3
20260507115114 12 199 0.0 1.6 0.03 1.55 1.50 98 1010.5
20260507114357 12 212 0.0 1.6 0.03 1.55 1.50 99 1010.8
20260507113857 12 0 0.0 1.6 0.03 1.55 1.50 99 1010.7
20260507113357 12 0 0.0 1.6 0.03 1.55 1.50 98 1010.4
20260507112856 12 203 0.0 1.6 0.05 1.55 1.50 98 1010.5
20260507112356 12 194 0.0 1.6 0.10 1.55 1.50 98 1010.5
20260507111856 12 0 0.0 1.6 0.18 1.55 1.50 98 1010.3
20260507111356 12 0 0.0 1.6 0.23 1.55 1.50 98 1010.0
20260507110856 12 0 0.0 1.6 0.28 1.55 1.50 98 1009.9
20260507110357 12 190 0.0 1.6 0.38 1.55 1.50 98 1010.3
20260507110059 12 185 0.0 1.6 0.48 1.52 1.47 98 1010.4
20260507105340 12 0 0.0 1.6 0.71 1.52 1.47 98 1010.2
20260507104841 12 205 0.0 1.6 0.84 1.52 1.47 98 1009.9
20260507104341 12 0 0.0 1.6 0.97 1.52 1.47 98 1009.9
20260507103841 12 0 0.0 1.6 1.04 1.52 1.47 98 1010.0
20260507103341 12 0 0.0 1.6 1.17 1.50 1.45 97 1009.9
20260507102841 12 145 0.0 1.6 1.32 1.50 1.45 97 1010.0
20260507102340 13 107 0.0 3.2 1.32 1.42 1.37 97 1010.0
20260507101328 13 208 0.0 1.6 1.24 1.30 1.24 97 1009.8
20260507101040 13 229 0.0 3.2 1.17 1.22 1.17 97 1009.6
20260507100312 13 0 0.0 3.2 1.09 1.14 1.09 97 1009.7
20260507095813 14 0 1.6 3.2 0.94 0.99 0.94 96 1009.9
20260507095259 14 217 1.6 3.2 0.71 0.76 0.71 96 1009.8
20260507094757 15 171 1.6 3.2 0.61 0.66 0.61 95 1009.6
20260507094258 15 152 1.6 3.2 0.48 0.53 0.48 95 1009.3
20260507093742 16 152 1.6 3.2 0.41 0.46 0.41 94 1009.4
20260507093242 17 206 1.6 3.2 0.23 0.28 0.23 93 1009.6
20260507092742 18 188 1.6 3.2 0.13 0.18 0.13 95 1009.4
20260507092242 18 73 0.0 3.2 0.03 0.08 0.03 96 1009.0
20260507091742 18 165 0.0 1.6 0.00 0.05 0.00 96 1008.9
20260507091243 18 0 0.0 0.0 0.00 0.05 0.00 95 1009.1
20260507090742 18 0 0.0 1.6 0.00 0.05 0.00 95 1009.1
20260507090242 18 0 0.0 1.6 0.00 0.05 0.00 95 1009.0
20260507085742 18 0 0.0 0.0 0.00 0.05 0.00 94 1009.1
20260507085242 18 0 0.0 0.0 0.00 0.05 0.00 94 1008.9
20260507084504 19 137 0.0 1.6 0.00 0.05 0.00 94 1009.1
20260507083742 19 0 0.0 0.0 0.00 0.05 0.00 94 1009.0
20260507083243 19 0 0.0 0.0 0.00 0.05 0.00 94 1008.9
20260507082743 19 0 0.0 1.6 0.00 0.05 0.00 93 1008.8
20260507082242 19 0 0.0 1.6 0.00 0.05 0.00 93 1008.8
20260507081742 19 144 1.6 1.6 0.00 0.05 0.00 93 1008.5
20260507081242 19 146 1.6 1.6 0.00 0.05 0.00 92 1008.4
20260507080743 19 138 0.0 1.6 0.00 0.05 0.00 92 1008.5
20260507080243 19 0 0.0 1.6 0.00 0.05 0.00 92 1008.3
20260507075743 19 0 0.0 3.2 0.00 0.05 0.00 92 1008.2
20260507075242 19 122 0.0 3.2 0.00 0.05 0.00 92 1008.3
20260507074730 19 40 0.0 1.6 0.00 0.05 0.00 91 1007.8
20260507074229 19 0 0.0 1.6 0.00 0.05 0.00 91 1007.9
20260507073729 19 0 0.0 1.6 0.00 0.05 0.00 91 1008.0
20260507073215 19 134 0.0 3.2 0.00 0.05 0.00 91 1008.1
20260507072714 19 0 0.0 3.2 0.00 0.05 0.00 91 1008.2
20260507072159 19 0 0.0 1.6 0.00 0.05 0.00 91 1008.3
20260507071644 19 131 0.0 3.2 0.00 0.05 0.00 91 1008.4
20260507071144 19 0 0.0 3.2 0.00 0.05 0.00 91 1008.6
20260507070645 19 33 0.0 3.2 0.00 0.05 0.00 91 1008.8
20260507070144 19 0 0.0 1.6 0.00 0.05 0.00 91 1008.9
20260507065644 19 76 0.0 1.6 0.00 0.05 0.00 91 1008.6
20260507065144 19 0 1.6 1.6 0.00 0.05 0.00 91 1008.7
20260507064904 19 58 1.6 3.2 0.00 0.05 0.00 91 1008.5
20260507064144 19 43 1.6 3.2 0.00 0.05 0.00 91 1008.5
20260507063631 19 98 0.0 1.6 0.00 0.05 0.00 90 1008.5
20260507063132 19 49 0.0 1.6 0.00 0.05 0.00 90 1008.5
20260507062616 19 62 0.0 3.2 0.00 0.05 0.00 90 1008.4
20260507062116 19 0 0.0 3.2 0.00 0.05 0.00 90 1008.4
20260507061601 19 0 0.0 3.2 0.00 0.05 0.00 90 1008.4
20260507061045 19 0 0.0 1.6 0.00 0.05 0.00 89 1008.3
20260507060545 19 0 0.0 1.6 0.00 0.05 0.00 89 1008.3
20260507055807 19 0 0.0 1.6 0.00 0.05 0.00 88 1008.4
20260507055045 19 0 0.0 1.6 0.00 0.05 0.00 89 1008.5
20260507054545 20 0 1.6 3.2 0.00 0.05 0.00 89 1008.5
20260507054046 20 94 0.0 4.8 0.00 0.05 0.00 89 1008.6
20260507053545 20 350 0.0 4.8 0.00 0.05 0.00 89 1008.5
20260507053045 20 0 0.0 1.6 0.00 0.05 0.00 89 1008.7
20260507052753 20 32 0.0 3.2 0.00 0.05 0.00 88 1008.7
20260507052031 20 0 0.0 3.2 0.00 0.05 0.00 88 1008.8
20260507051517 20 353 0.0 1.6 0.00 0.05 0.00 88 1008.8
20260507051016 20 0 0.0 1.6 0.00 0.05 0.00 88 1008.9
20260507050516 20 88 0.0 1.6 0.00 0.05 0.00 87 1009.0
20260507050017 20 0 0.0 1.6 0.00 0.05 0.00 87 1009.3
20260507045503 20 0 0.0 1.6 0.00 0.05 0.00 87 1009.5
20260507045003 20 0 0.0 3.2 0.00 0.05 0.00 86 1009.7
20260507044502 20 41 1.6 3.2 0.00 0.05 0.00 86 1009.9
20260507044001 20 84 0.0 1.6 0.00 0.05 0.00 86 1009.9
20260507043502 20 50 0.0 1.6 0.00 0.05 0.00 85 1009.9
20260507042946 20 0 0.0 1.6 0.00 0.05 0.00 85 1009.9
20260507042713 20 70 0.0 1.6 0.00 0.05 0.00 85 1009.9
20260507041946 20 84 0.0 1.6 0.00 0.05 0.00 85 1009.7
20260507041711 20 0 0.0 1.6 0.00 0.05 0.00 85 1009.7
20260507040946 20 284 0.0 1.6 0.00 0.05 0.00 85 1009.7
20260507040433 20 55 0.0 1.6 0.00 0.05 0.00 85 1009.7
20260507035918 20 38 0.0 1.6 0.00 0.05 0.05 85 1009.6
20260507035418 20 0 0.0 1.6 0.00 0.05 0.05 85 1009.5
20260507034917 20 58 0.0 1.6 0.00 0.05 0.05 85 1009.4
20260507033847 20 0 0.0 3.2 0.00 0.05 0.05 86 1009.6
20260507033347 19 0 0.0 3.2 0.00 0.05 0.05 87 1009.5
20260507032847 19 97 0.0 1.6 0.00 0.05 0.05 88 1009.4
20260507032347 19 62 0.0 1.6 0.00 0.05 0.05 88 1009.2
20260507031847 19 69 0.0 1.6 0.00 0.05 0.05 88 1009.2
20260507031347 19 66 0.0 1.6 0.00 0.05 0.05 88 1009.1
20260507030846 19 79 0.0 1.6 0.00 0.05 0.05 89 1009.2
20260507030612 19 98 0.0 1.6 0.00 0.05 0.05 89 1009.3
20260507025847 19 0 0.0 1.6 0.00 0.05 0.05 89 1009.2
20260507025347 19 0 0.0 1.6 0.00 0.05 0.05 89 1009.0
20260507024847 19 0 0.0 1.6 0.00 0.05 0.05 89 1009.0
20260507024347 19 0 0.0 1.6 0.00 0.05 0.05 89 1009.0
20260507023847 19 0 0.0 1.6 0.00 0.05 0.05 89 1009.2
20260507023602 19 0 0.0 1.6 0.00 0.05 0.05 89 1009.3
20260507022834 19 0 0.0 1.6 0.00 0.05 0.05 89 1009.3
20260507022334 19 0 0.0 1.6 0.00 0.05 0.05 89 1009.4
20260507021834 19 301 0.0 1.6 0.00 0.05 0.05 89 1009.4
20260507021334 19 0 0.0 1.6 0.00 0.05 0.05 89 1009.3
20260507021052 18 0 0.0 1.6 0.00 0.05 0.05 90 1009.5
20260507020334 18 19 0.0 1.6 0.00 0.05 0.05 90 1009.6
20260507015834 18 0 0.0 3.2 0.00 0.05 0.05 90 1009.8
20260507014820 18 89 0.0 1.6 0.00 0.05 0.05 90 1009.7
20260507014320 18 0 0.0 1.6 0.00 0.05 0.05 90 1009.7
20260507013805 18 43 0.0 1.6 0.00 0.05 0.05 90 1009.7
20260507013304 18 0 0.0 0.0 0.00 0.05 0.05 90 1009.6
20260507012804 18 0 0.0 0.0 0.00 0.05 0.05 90 1009.4
20260507012306 18 0 0.0 1.6 0.00 0.05 0.05 90 1009.4
20260507012031 18 0 0.0 1.6 0.00 0.05 0.05 89 1009.3
20260507011507 18 0 0.0 0.0 0.00 0.05 0.05 89 1009.4
20260507010511 19 0 0.0 0.0 0.00 0.05 0.05 89 1009.4
20260507005748 19 0 0.0 1.6 0.00 0.05 0.05 89 1009.4
20260507005249 19 0 0.0 1.6 0.00 0.05 0.05 88 1009.3
20260507004749 19 0 0.0 1.6 0.00 0.05 0.05 88 1009.4
20260507004249 20 0 0.0 1.6 0.00 0.05 0.05 87 1009.2
20260507003748 20 0 0.0 1.6 0.00 0.05 0.05 86 1009.4
20260507003248 20 0 0.0 1.6 0.00 0.05 0.05 86 1009.4
20260507002749 20 0 0.0 1.6 0.00 0.05 0.05 85 1009.4
20260507002249 20 0 0.0 0.0 0.00 0.05 0.05 85 1009.4
20260507001749 20 0 0.0 0.0 0.00 0.05 0.05 84 1009.4
20260507001249 20 0 0.0 0.0 0.00 0.05 0.05 84 1009.5
20260507000736 20 84 0.0 1.6 0.00 0.05 0.05 84 1009.6
20260507000502 20 352 0.0 1.6 0.00 0.05 0.05 83 1009.6
20260506235721 20 83 0.0 1.6 0.00 0.05 0.05 83 1009.7
20260506234221 21 0 0.0 3.2 0.00 0.05 0.05 82 1009.3
20260506233944 21 27 0.0 3.2 0.00 0.05 0.05 82 1009.2
20260506233221 21 113 0.0 1.6 0.00 0.05 0.05 82 1009.1
20260506232721 21 0 0.0 1.6 0.00 0.05 0.05 81 1009.0
20260506232221 21 0 0.0 3.2 0.00 0.05 0.05 81 1009.0
20260506231721 21 0 1.6 3.2 0.00 0.05 0.05 82 1009.2
20260506231221 21 0 0.0 1.6 0.00 0.05 0.05 81 1009.2
20260506230722 21 77 0.0 1.6 0.00 0.05 0.05 81 1009.2
20260506230221 21 73 0.0 1.6 0.00 0.05 0.05 80 1009.2
20260506225722 21 0 0.0 1.6 0.00 0.05 0.05 80 1009.1
20260506225207 21 0 0.0 1.6 0.00 0.05 0.05 79 1009.2
20260506224915 21 0 0.0 1.6 0.00 0.05 0.05 80 1009.2
20260506224150 21 90 0.0 1.6 0.00 0.05 0.05 79 1009.2
20260506223651 21 42 0.0 4.8 0.00 0.05 0.05 79 1009.2
20260506223151 21 0 0.0 4.8 0.00 0.05 0.05 79 1009.1
20260506222651 21 106 0.0 1.6 0.00 0.05 0.05 78 1009.1
20260506222151 21 98 0.0 1.6 0.00 0.05 0.05 78 1009.2
20260506221651 21 37 1.6 1.6 0.00 0.05 0.05 78 1009.1
20260506221151 21 341 1.6 3.2 0.00 0.05 0.05 77 1009.1
20260506220651 21 310 1.6 3.2 0.00 0.05 0.05 77 1009.1
20260506220151 21 323 1.6 3.2 0.00 0.05 0.05 76 1009.1
20260506215651 21 136 1.6 3.2 0.00 0.05 0.05 76 1009.1
20260506215151 21 9 1.6 3.2 0.00 0.05 0.05 76 1009.0
20260506214652 21 108 1.6 3.2 0.00 0.05 0.05 76 1009.0
20260506214139 21 323 1.6 3.2 0.00 0.05 0.05 75 1009.0
20260506213358 21 0 1.6 3.2 0.00 0.05 0.05 76 1009.3
20260506212638 21 25 1.6 3.2 0.00 0.05 0.05 75 1009.3
20260506212138 21 283 1.6 3.2 0.00 0.05 0.05 74 1009.4
20260506211639 21 64 1.6 3.2 0.00 0.05 0.05 76 1009.5
20260506211139 21 54 1.6 3.2 0.00 0.05 0.05 75 1009.3
20260506210639 21 69 1.6 3.2 0.00 0.05 0.05 76 1009.2
20260506210138 21 0 1.6 3.2 0.00 0.05 0.05 76 1009.2
20260506205638 21 15 1.6 3.2 0.00 0.05 0.05 77 1009.1
20260506205124 21 115 1.6 3.2 0.00 0.05 0.05 78 1009.1
20260506204609 21 94 1.6 3.2 0.00 0.05 0.05 78 1009.3
20260506204109 21 176 1.6 3.2 0.00 0.05 0.05 78 1009.3
20260506203609 21 39 1.6 3.2 0.00 0.05 0.05 78 1009.2
20260506203109 21 293 1.6 3.2 0.00 0.05 0.05 78 1009.4
20260506202553 21 79 1.6 4.8 0.00 0.05 0.05 77 1009.3
20260506202319 21 94 1.6 4.8 0.00 0.05 0.05 78 1009.3
20260506201553 21 78 1.6 3.2 0.00 0.05 0.05 78 1009.1
20260506200553 21 58 1.6 4.8 0.00 0.05 0.05 78 1009.0
20260506200053 21 260 1.6 4.8 0.00 0.05 0.05 79 1008.9
20260506195553 21 266 3.2 4.8 0.00 0.05 0.05 78 1008.6
20260506195311 20 202 1.6 4.8 0.00 0.05 0.05 78 1008.4
20260506194053 20 294 1.6 4.8 0.00 0.05 0.05 79 1008.4
20260506193552 20 47 1.6 3.2 0.00 0.05 0.05 80 1008.4
20260506193053 20 92 1.6 3.2 0.00 0.05 0.05 81 1008.6
20260506192540 20 324 1.6 3.2 0.00 0.05 0.05 80 1008.8